OE3PDB-3 Weather Reports


time (UTC)temp
C
wind
direction
speed
KPH
gust
KPH
rain 1hr
cm
rain 24hr
cm
rain mn
cm
humidity
%
barometer
mb
20260905223050 16 45 0.0 0.0 0.00 0.00 0.00 68 1022.6
20260905222050 16 112 0.0 0.0 0.00 0.00 0.00 69 1022.5
20260905221050 16 22 0.0 0.0 0.00 0.00 0.00 69 1022.5
20260905220050 16 45 0.0 0.0 0.00 0.00 0.00 68 1022.5
20260905215050 16 135 0.0 0.0 0.00 0.00 0.00 68 1022.2
20260905214050 17 67 0.0 0.0 0.00 0.00 0.00 68 1022.2
20260905213050 17 135 0.0 0.0 0.00 0.00 0.00 68 1022.1
20260905212051 17 22 0.0 0.0 0.00 0.00 0.00 67 1021.9
20260905211051 17 135 0.0 0.0 0.00 0.00 0.00 66 1021.7
20260905210051 17 157 0.0 0.0 0.00 0.00 0.00 66 1021.7
20260905205051 17 67 0.0 0.0 0.00 0.00 0.00 65 1021.7
20260905204051 17 157 0.0 0.0 0.00 0.00 0.00 65 1021.7
20260905203051 17 135 0.0 0.0 0.00 0.00 0.00 65 1021.6
20260905202051 17 45 0.0 0.0 0.00 0.00 0.00 65 1021.6
20260905201051 17 67 0.0 0.0 0.00 0.00 0.00 64 1021.5
20260905200051 17 90 0.0 0.0 0.00 0.00 0.00 64 1021.5
20260905195051 17 22 0.0 0.0 0.00 0.00 0.00 64 1021.5
20260905194051 18 22 0.0 0.0 0.00 0.00 0.00 64 1021.5
20260905193051 18 112 0.0 0.0 0.00 0.00 0.00 64 1021.5
20260905192051 18 67 0.0 0.0 0.00 0.00 0.00 64 1021.4
20260905191051 18 112 0.0 0.0 0.00 0.00 0.00 63 1021.3
20260905190051 18 90 0.0 0.0 0.00 0.00 0.00 63 1021.2
20260905185051 18 202 0.0 0.0 0.00 0.00 0.00 62 1021.2
20260905184051 18 135 0.0 0.0 0.00 0.00 0.00 61 1021.1
20260905183051 18 112 0.0 0.0 0.00 0.00 0.00 61 1020.8
20260905182051 18 45 0.0 0.0 0.00 0.00 0.00 60 1020.7
20260905181051 19 67 0.0 0.0 0.00 0.00 0.00 59 1020.7
20260905180051 19 22 0.0 0.0 0.00 0.00 0.00 58 1020.6
20260905175051 20 22 0.0 0.0 0.00 0.00 0.00 57 1020.4
20260905174051 20 90 0.0 0.0 0.00 0.00 0.00 56 1020.1
20260905173051 20 90 0.0 0.0 0.00 0.00 0.00 55 1020.1
20260905172051 20 67 0.0 0.0 0.00 0.00 0.00 54 1020.0
20260905171051 21 22 0.0 0.0 0.00 0.00 0.00 53 1019.9
20260905170051 21 292 0.0 0.0 0.00 0.00 0.00 52 1020.0
20260905165051 21 315 0.0 0.0 0.00 0.00 0.00 51 1019.9
20260905164051 22 67 0.0 0.0 0.00 0.00 0.00 49 1019.7
20260905163051 22 135 0.0 0.0 0.00 0.00 0.00 49 1019.6
20260905162051 23 90 0.0 0.0 0.00 0.00 0.00 48 1019.5
20260905161051 23 90 0.0 0.0 0.00 0.00 0.00 47 1019.5
20260905160051 24 337 0.0 0.0 0.00 0.00 0.00 46 1019.5
20260905155051 25 45 0.0 0.0 0.00 0.00 0.00 45 1019.5
20260905154051 25 225 0.0 0.0 0.00 0.00 0.00 44 1019.5
20260905153051 26 135 0.0 0.0 0.00 0.00 0.00 44 1019.5
20260905152051 26 112 0.0 0.0 0.00 0.00 0.00 44 1019.5
20260905151051 26 157 0.0 0.0 0.00 0.00 0.00 43 1019.4
20260905150051 26 135 0.0 0.0 0.00 0.00 0.00 44 1019.4
20260905145051 26 112 6.4 6.4 0.00 0.00 0.00 44 1019.4
20260905144051 26 45 0.0 0.0 0.00 0.00 0.00 46 1019.3
20260905143051 26 292 0.0 0.0 0.00 0.00 0.00 46 1019.4
20260905142051 26 112 0.0 0.0 0.00 0.00 0.00 46 1019.4
20260905141051 26 22 0.0 0.0 0.00 0.00 0.00 46 1019.4
20260905140051 26 22 0.0 0.0 0.00 0.00 0.00 47 1019.4
20260905135051 25 315 0.0 0.0 0.00 0.00 0.00 48 1019.4
20260905134051 25 315 0.0 0.0 0.00 0.00 0.00 49 1019.5
20260905133051 25 0 0.0 0.0 0.00 0.00 0.00 50 1019.6
20260905132051 25 112 0.0 0.0 0.00 0.00 0.00 51 1019.7
20260905131051 24 0 0.0 0.0 0.00 0.00 0.00 52 1019.7
20260905130051 23 112 0.0 0.0 0.00 0.00 0.00 53 1019.9
20260905125052 23 45 0.0 0.0 0.00 0.00 0.00 54 1020.0
20260905124052 22 90 0.0 0.0 0.00 0.00 0.00 56 1020.0
20260905123052 22 0 0.0 0.0 0.00 0.00 0.00 57 1020.0
20260905122052 21 22 0.0 0.0 0.00 0.00 0.00 59 1020.0
20260905121052 20 337 0.0 0.0 0.00 0.00 0.00 59 1020.0
20260905120052 21 292 0.0 0.0 0.00 0.00 0.00 59 1020.1
20260905115052 21 67 0.0 0.0 0.00 0.00 0.00 60 1020.0
20260905114052 21 292 0.0 0.0 0.00 0.00 0.00 61 1020.0
20260905113052 20 22 0.0 0.0 0.00 0.00 0.00 62 1020.0
20260905112052 20 0 0.0 0.0 0.00 0.00 0.00 63 1020.0
20260905111052 20 22 0.0 0.0 0.00 0.00 0.00 65 1020.1
20260905110052 20 67 0.0 0.0 0.00 0.00 0.00 67 1020.0
20260905105052 20 112 0.0 0.0 0.00 0.00 0.00 69 1020.1
20260905104052 20 45 0.0 0.0 0.00 0.00 0.00 69 1020.1
20260905103052 19 157 0.0 0.0 0.00 0.00 0.00 70 1020.1
20260905102052 19 22 0.0 0.0 0.00 0.00 0.00 71 1020.2
20260905101052 18 22 0.0 0.0 0.00 0.00 0.00 71 1020.3
20260905100052 18 112 0.0 0.0 0.00 0.00 0.00 73 1020.2
20260905095052 18 90 0.0 0.0 0.00 0.00 0.00 74 1020.1
20260905094052 18 112 0.0 0.0 0.00 0.00 0.00 74 1020.2
20260905093052 17 45 0.0 0.0 0.00 0.00 0.00 75 1020.2
20260905092052 17 135 0.0 0.0 0.00 0.00 0.00 76 1020.2
20260905091052 17 112 0.0 0.0 0.00 0.00 0.00 77 1020.1
20260905090052 16 45 0.0 0.0 0.00 0.00 0.00 77 1020.0
20260905085052 16 22 0.0 0.0 0.00 0.00 0.00 77 1020.0
20260905084052 16 22 0.0 0.0 0.00 0.00 0.00 78 1020.0
20260905083052 16 22 0.0 0.0 0.00 0.00 0.00 77 1020.1
20260905082052 15 67 0.0 0.0 0.00 0.00 0.00 77 1020.2
20260905081052 15 112 0.0 0.0 0.00 0.00 0.00 76 1020.6
20260905080052 15 135 0.0 0.0 0.00 0.00 0.00 77 1020.4
20260905075052 15 135 0.0 0.0 0.00 0.00 0.00 77 1020.6
20260905074052 15 135 0.0 0.0 0.00 0.00 0.00 77 1020.7
20260905073052 15 112 0.0 0.0 0.00 0.00 0.00 76 1020.4
20260905072052 15 157 0.0 0.0 0.00 0.00 0.00 76 1020.7
20260905071052 15 157 0.0 0.0 0.00 0.00 0.00 76 1020.5
20260905070052 15 157 0.0 0.0 0.00 0.00 0.00 75 1020.2
20260905065052 15 157 0.0 0.0 0.00 0.00 0.00 74 1019.5
20260905064052 15 90 0.0 0.0 0.00 0.00 0.00 73 1020.4
20260905063052 15 67 0.0 0.0 0.00 0.00 0.00 71 1020.4
20260905062052 16 180 0.0 0.0 0.00 0.00 0.00 70 1019.8
20260905061052 16 67 0.0 0.0 0.00 0.00 0.00 68 1019.5
20260905060052 16 45 0.0 0.0 0.00 0.00 0.00 66 1019.7
20260905055052 16 157 0.0 0.0 0.00 0.00 0.00 64 1019.3
20260905054052 16 22 0.0 0.0 0.00 0.00 0.00 64 1018.8
20260905053052 16 22 0.0 0.0 0.00 0.00 0.00 64 1018.8
20260905052052 16 0 0.0 0.0 0.00 0.00 0.00 65 1018.3
20260905051052 16 22 0.0 0.0 0.00 0.00 0.00 66 1018.1
20260905050052 16 112 0.0 0.0 0.00 0.00 0.00 66 1017.7
20260905045053 16 135 0.0 0.0 0.00 0.00 0.00 67 1017.8
20260905044053 16 135 0.0 0.0 0.00 0.00 0.00 68 1017.3
20260905043053 17 67 0.0 0.0 0.00 0.00 0.00 69 1017.3
20260905042053 17 67 0.0 0.0 0.00 0.00 0.00 68 1017.9
20260905041053 17 247 0.0 0.0 0.00 0.00 0.00 68 1017.6
20260905040053 17 225 0.0 0.0 0.00 0.00 0.00 66 1017.1
20260905035053 18 247 0.0 0.0 0.00 0.00 0.00 66 1017.0
20260905034053 18 135 0.0 0.0 0.00 0.00 0.00 64 1017.1
20260905033053 20 135 0.0 0.0 0.00 0.00 0.00 62 1017.4
20260905032053 20 157 0.0 0.0 0.00 0.00 0.00 62 1016.2
20260905031053 20 112 0.0 0.0 0.00 0.00 0.00 61 1016.5
20260905030053 21 22 0.0 0.0 0.00 0.00 0.00 59 1015.9
20260905025053 21 112 0.0 0.0 0.00 0.00 0.00 58 1015.0
20260905024053 20 180 0.0 0.0 0.00 0.00 0.00 59 1014.3
20260905023053 20 45 0.0 0.0 0.00 0.00 0.00 60 1014.3
20260905022053 20 135 0.0 0.0 0.00 0.00 0.00 59 1014.0
20260905021053 21 112 0.0 0.0 0.00 0.00 0.00 57 1014.2
20260905020053 21 45 0.0 0.0 0.00 0.00 0.00 55 1014.1
20260905015053 21 67 0.0 0.0 0.00 0.00 0.00 52 1014.2
20260905014053 22 337 0.0 0.0 0.00 0.00 0.00 51 1013.9
20260905013053 22 45 0.0 0.0 0.00 0.00 0.00 51 1013.9
20260905012053 22 67 0.0 0.0 0.00 0.00 0.00 51 1013.9
20260905011053 22 45 0.0 0.0 0.00 0.00 0.00 51 1013.8
20260905010053 22 67 0.0 0.0 0.00 0.00 0.00 51 1013.8
20260905005053 22 112 0.0 0.0 0.00 0.00 0.00 50 1013.7
20260905004053 22 22 0.0 0.0 0.00 0.00 0.00 50 1013.7
20260905003053 22 157 0.0 0.0 0.00 0.00 0.00 50 1013.8
20260905002053 22 45 0.0 0.0 0.00 0.00 0.00 50 1013.7
20260905001053 22 112 0.0 0.0 0.00 0.00 0.00 50 1013.4
20260904235052 22 315 0.0 0.0 0.00 0.00 0.00 49 1013.3
20260904234052 22 292 0.0 0.0 0.00 0.00 0.00 49 1013.3
20260904233052 22 135 0.0 0.0 0.00 0.00 0.00 50 1013.2
20260904232052 22 112 0.0 0.0 0.00 0.00 0.00 50 1013.2
20260904231052 22 112 0.0 0.0 0.00 0.00 0.00 50 1013.1
20260904230052 22 90 0.0 0.0 0.00 0.00 0.00 50 1013.1
20260904225052 22 135 0.0 0.0 0.00 0.00 0.00 50 1013.1
20260904224052 22 90 0.0 0.0 0.00 0.00 0.00 50 1013.0